Pagosa Springs, CO

8:21 PM MDT on October 23, 2017 (GMT -0600)
Pagosa Springs

Weather History for KPSO - January, 2013

Change the Weather History Date:

Tuesday, January 1, 2013

  Actual Average (KE33) Record (KE33)
Temperature  
Mean Temperature 10 °F -  
Max Temperature 21 °F 35 °F 46 °F (1997)
Min Temperature 0 °F 17 °F -14 °F (2011)
Degree Days  
Heating Degree Days 54    
Moisture  
Dew Point 9 °F    
Average Humidity 84    
Maximum Humidity 94    
Minimum Humidity 66    
Precipitation  
Precipitation 0.00 in - - ()
Sea Level Pressure  
Sea Level Pressure 30.07 in    
Wind  
Wind Speed 1 mph (SSW)    
Max Wind Speed 8 mph    
Max Gust Speed -    
Visibility 6 miles    
Events Snow , Thunderstorm    
Averages and records for this station are not official NWS values.
T = Trace of Precipitation, MM = Missing Value Source: NWS Daily Summary

Daily Weather History Graph

Daily Weather History Graph

Search for Another Location

Airport or City:

Trip Planner

Search our weather history database for the weather conditions in past years. The results will help you decide how hot, cold, wet, or windy it might be!

Date:

Astronomy

Jan. 01, 2013 Rise Set
Actual Time 7:22 AM MST 5:01 PM MST
Civil Twilight 6:53 AM MST 5:30 PM MST
Nautical Twilight 6:20 AM MST 6:03 PM MST
Astronomical Twilight 5:49 AM MST 6:35 PM MST
Moon 9:29 PM MST (1/1) 9:41 AM MST (1/1)
Length of Visible Light 10h 37m
Length of Day
9h 39m
Waning Gibbous, 83% of the Moon is Illuminated
Jan 1
Waning Gibbous
Jan 4
Last Quarter
Jan 11
New
Jan 18
First Quarter
Jan 26
Full

Hourly Weather History & Observations

Time (MST) Temp. Windchill Dew Point Humidity Pressure Visibility Wind Dir Wind Speed Gust Speed Precip Events Conditions
12:15 AM 17.6 °F - 15.8 °F 93% 29.98 in 1.2 mi Calm Calm - N/A Snow Light Snow
12:35 AM 17.4 °F - 15.6 °F 93% 29.97 in 2.0 mi Calm Calm - N/A Snow Light Snow
12:55 AM 16.7 °F - 15.3 °F 94% 29.97 in 1.5 mi Calm Calm - N/A Snow Light Snow
1:15 AM 16.0 °F - 14.4 °F 93% 29.98 in 1.5 mi Calm Calm - N/A Snow Light Snow
1:35 AM 15.4 °F - 14.0 °F 94% 29.98 in 7.0 mi Calm Calm - N/A Snow Light Snow
2:15 AM 14.9 °F - 13.5 °F 94% 29.99 in 4.0 mi Calm Calm - N/A Snow Light Snow
2:35 AM 15.4 °F - 13.6 °F 93% 29.99 in 1.8 mi Calm Calm - N/A Snow Light Snow
2:55 AM 15.3 °F 9.6 °F 13.6 °F 93% 30.00 in 3.0 mi East 3.5 mph - N/A Snow Light Snow
3:15 AM 14.9 °F - 13.1 °F 93% 30.00 in 1.8 mi Calm Calm - N/A Snow Light Snow
3:35 AM 14.7 °F - 12.9 °F 93% 30.01 in 1.5 mi Calm Calm - N/A Snow Light Snow
3:55 AM 13.1 °F 7.1 °F 10.4 °F 89% 30.01 in 2.0 mi NNE 3.5 mph - N/A Snow Light Snow
4:15 AM 13.1 °F - 11.1 °F 92% 30.01 in 3.0 mi Calm Calm - N/A Snow Light Snow
4:35 AM 13.1 °F 7.1 °F 11.1 °F 92% 30.01 in 1.8 mi East 3.5 mph - N/A Snow Light Snow
4:55 AM 9.1 °F - 7.2 °F 92% 30.01 in 3.0 mi Calm Calm - N/A Snow Light Snow
5:15 AM 6.4 °F - 4.8 °F 93% 30.01 in 5.0 mi Calm Calm - N/A Snow Light Snow
5:35 AM 7.3 °F - 5.7 °F 93% 30.02 in 4.0 mi Calm Calm - N/A Snow Light Snow
5:55 AM 5.2 °F - 2.8 °F 90% 30.03 in 5.0 mi Calm Calm - N/A Snow , Thunderstorm Light Thunderstorms and Snow
6:15 AM 4.5 °F - 1.4 °F 87% 30.04 in 2.0 mi Calm Calm - N/A Snow Light Snow
6:35 AM 5.4 °F - 2.5 °F 88% 30.04 in 2.0 mi Calm Calm - N/A Snow Light Snow
6:55 AM 7.5 °F -1.1 °F 4.6 °F 88% 30.05 in 4.0 mi NNE 4.6 mph - N/A Snow Light Snow
7:15 AM 4.5 °F - 1.4 °F 87% 30.05 in 2.5 mi Calm Calm - N/A Snow Light Snow
7:35 AM 1.0 °F - -1.8 °F 88% 30.06 in 10.0 mi Calm Calm - N/A   Clear
7:55 AM -0.6 °F - -3.8 °F 86% 30.07 in 4.0 mi Calm Calm - N/A Snow Light Snow
8:15 AM 3.6 °F - 1.0 °F 89% 30.07 in 10.0 mi Calm Calm - N/A   Scattered Clouds
8:35 AM 4.5 °F - 1.6 °F 88% 30.07 in 7.0 mi Calm Calm - N/A Snow Light Snow
8:55 AM - - - N/A% 30.08 in 7.0 mi Calm Calm - N/A   Unknown
9:15 AM - - - N/A% 30.09 in 4.0 mi Calm Calm - N/A   Unknown
9:35 AM - - - N/A% 30.09 in 10.0 mi Calm Calm - N/A   Clear
9:55 AM 9.7 °F - 7.2 °F 90% 30.09 in 10.0 mi Calm Calm - N/A   Scattered Clouds
10:15 AM 10.4 °F - 7.7 °F 89% 30.10 in 10.0 mi Calm Calm - N/A   Scattered Clouds
10:35 AM 12.0 °F - 9.0 °F 88% 30.10 in 10.0 mi Calm Calm - N/A   Clear
10:55 AM 13.3 °F - 9.5 °F 85% 30.10 in 10.0 mi Calm Calm - N/A   Clear
11:15 AM 15.8 °F 8.6 °F 9.1 °F 75% 30.10 in 10.0 mi SSW 4.6 mph - N/A   Clear
11:35 AM 16.3 °F 9.2 °F 9.0 °F 73% 30.09 in 10.0 mi SSW 4.6 mph - N/A   Clear
11:55 AM 16.7 °F 11.2 °F 8.8 °F 71% 30.08 in 10.0 mi SSW 3.5 mph - N/A   Scattered Clouds
12:15 PM 17.6 °F 10.7 °F 9.3 °F 70% 30.07 in 10.0 mi SW 4.6 mph - N/A   Scattered Clouds
12:35 PM 18.1 °F 12.9 °F 9.7 °F 70% 30.07 in 10.0 mi SW 3.5 mph - N/A   Scattered Clouds
12:55 PM 18.9 °F 13.7 °F 9.5 °F 67% 30.05 in 10.0 mi SW 3.5 mph - N/A   Scattered Clouds
1:15 PM 19.4 °F 12.8 °F 9.7 °F 66% 30.05 in 10.0 mi SSW 4.6 mph - N/A   Clear
1:35 PM 19.9 °F 14.9 °F 10.8 °F 68% 30.05 in 10.0 mi SSW 3.5 mph - N/A   Clear
1:55 PM 20.1 °F 15.2 °F 10.6 °F 67% 30.05 in 10.0 mi SSW 3.5 mph - N/A   Clear
2:15 PM 20.3 °F 13.8 °F 11.1 °F 68% 30.05 in 10.0 mi South 4.6 mph - N/A   Clear
2:35 PM 21.0 °F 13.4 °F 11.8 °F 68% 30.05 in 10.0 mi SSW 5.8 mph - N/A   Clear
2:55 PM 21.2 °F 14.9 °F 12.4 °F 69% 30.05 in 10.0 mi South 4.6 mph - N/A   Scattered Clouds
3:15 PM 21.4 °F 12.8 °F 12.7 °F 69% 30.06 in 10.0 mi South 6.9 mph - N/A   Scattered Clouds
3:35 PM 20.5 °F 10.8 °F 12.4 °F 71% 30.07 in 10.0 mi SSW 8.1 mph - N/A   Overcast
3:55 PM 20.3 °F 15.4 °F 12.6 °F 72% 30.07 in 10.0 mi South 3.5 mph - N/A Snow Light Snow
4:15 PM 20.3 °F 13.8 °F 13.1 °F 74% 30.08 in 5.0 mi SSE 4.6 mph - N/A Snow Light Snow
4:35 PM 20.3 °F 13.8 °F 13.5 °F 75% 30.08 in 3.0 mi SSW 4.6 mph - N/A Snow Light Snow
4:55 PM 19.9 °F 14.9 °F 12.9 °F 74% 30.09 in 5.0 mi SW 3.5 mph - N/A Snow Light Snow
5:15 PM 18.3 °F - 12.7 °F 79% 30.10 in 7.0 mi Calm Calm - N/A Snow Light Snow
6:15 PM 14.5 °F - 12.9 °F 93% 30.12 in 10.0 mi Calm Calm - N/A Snow Light Snow
6:35 PM 13.3 °F - 10.8 °F 90% 30.12 in 2.5 mi Calm Calm - N/A Snow Light Snow
6:55 PM 14.9 °F - 12.0 °F 88% 30.11 in 2.0 mi Calm Calm - N/A Snow Light Snow
7:15 PM 14.0 °F - 11.3 °F 89% 30.12 in 2.5 mi Calm Calm - N/A Snow Light Snow
7:35 PM 14.0 °F - 12.2 °F 93% 30.12 in 2.5 mi Calm Calm - N/A Snow Light Snow
7:55 PM 11.1 °F - 9.1 °F 92% 30.12 in 3.0 mi Calm Calm - N/A Snow Light Snow
8:15 PM 10.9 °F - 9.0 °F 92% 30.11 in 3.0 mi Calm Calm - N/A Snow Light Snow
8:35 PM 5.9 °F - 2.8 °F 87% 30.11 in 7.0 mi Calm Calm - N/A Snow Light Snow
8:55 PM 5.9 °F - 2.8 °F 87% 30.12 in 7.0 mi Calm Calm - N/A Snow Light Snow
9:15 PM 6.8 °F - 4.8 °F 92% 30.12 in 10.0 mi Calm Calm - N/A   Mostly Cloudy
9:35 PM 5.5 °F - 1.0 °F 82% 30.13 in 10.0 mi Calm Calm - N/A   Mostly Cloudy
9:55 PM - - - N/A% 30.14 in 10.0 mi Calm Calm - N/A   Mostly Cloudy
10:15 PM - - - N/A% 30.15 in 7.0 mi Calm Calm - N/A   Unknown
10:35 PM - - - N/A% 30.15 in 2.5 mi Calm Calm - N/A   Unknown
10:55 PM - - - N/A% 30.16 in 4.0 mi Calm Calm - N/A   Unknown
11:15 PM - - - N/A% 30.17 in 10.0 mi Calm Calm - N/A   Scattered Clouds
11:35 PM - - - N/A% 30.17 in 10.0 mi Calm Calm - N/A Thunderstorm Thunderstorm
11:55 PM - - - N/A% 30.17 in 5.0 mi Calm Calm - N/A   Unknown